Theta_e
303 297 294 295 295 297 299 300 301 303 308 314 317 317 317 317 319 324 326 328 329 323 322 324 323 325 324 325 329 333 335 330 325 325 325 326 327 327 326 327 326 326 328 333 335 338 339 341 342 344 345 346 348 349 350 349 349 349 349 349 349 348 349 348 346 345 344 343 343 344 345 343 346 347 348 351 351 353 356 358 359 359 359 357 358 358
303 296 295 296 298 299 299 300 301 301 317 314 315 317 316 317 317 324 324 329 330 323 320 324 322 323 323 326 330 334 332 327 324 324 324 325 326 326 325 324 325 326 329 333 333 335 338 339 341 344 344 347 344 346 348 347 347 347 348 348 347 347 348 348 347 346 345 344 343 343 344 346 346 349 348 346 350 353 358 358 359 360 359 357 357 359
297 294 297 299 300 300 300 300 301 302 314 315 315 315 315 316 322 325 325 328 328 324 319 322 320 321 324 327 329 330 333 335 334 325 325 325 325 324 325 323 324 325 327 330 332 334 336 338 341 343 343 344 345 346 347 347 346 346 347 347 346 347 348 347 347 346 344 345 347 345 345 346 346 350 351 349 354 357 357 359 360 360 358 356 356 359
294 294 299 301 300 299 299 299 299 303 305 311 313 313 311 317 316 312 322 327 327 324 319 322 320 320 324 328 328 330 332 334 337 334 326 326 324 323 324 323 323 324 326 327 329 332 335 338 340 341 341 343 344 345 345 345 345 346 347 346 346 346 347 347 348 349 346 347 347 348 348 349 349 347 353 353 355 356 357 357 359 359 358 357 357 359
294 297 302 301 299 299 298 298 297 295 293 310 315 313 313 315 315 318 319 324 326 327 326 322 317 317 321 320 323 331 334 333 334 332 327 326 325 326 325 324 325 324 326 327 328 332 334 337 338 338 340 342 342 344 344 345 345 347 346 346 346 346 347 347 351 349 347 350 346 348 350 353 351 353 350 349 351 354 356 357 356 358 358 358 358 359
296 302 303 300 298 298 298 296 296 296 292 299 313 314 316 318 318 321 322 319 316 314 322 320 308 310 318 321 322 328 329 328 333 329 326 328 328 325 322 323 324 326 327 327 328 331 334 336 336 337 339 341 342 343 344 345 346 346 346 346 346 346 347 348 350 348 349 350 345 345 345 344 343 343 345 346 348 351 354 355 357 359 359 359 358 358
299 303 301 299 298 297 296 296 296 297 291 297 302 315 318 319 320 320 318 316 308 306 317 325 308 305 315 317 321 324 325 325 330 330 331 331 332 326 322 323 323 325 325 326 329 332 334 335 334 335 338 340 341 342 345 345 345 346 346 347 347 346 346 348 351 349 352 348 347 346 346 346 345 345 347 348 351 353 354 356 356 357 359 358 359 360
300 300 299 299 298 297 295 294 297 297 294 294 301 317 319 319 319 319 318 315 312 322 322 322 317 306 307 314 323 325 323 324 325 329 332 332 332 329 326 325 323 325 324 325 328 332 334 334 334 335 338 340 341 343 344 344 345 345 347 346 347 347 348 347 349 349 350 348 347 347 347 348 345 347 348 350 351 354 357 354 355 357 357 357 358 359
298 298 298 297 297 295 294 297 298 299 295 294 305 319 318 320 320 320 316 312 315 314 309 315 319 306 306 316 324 323 319 321 323 326 328 331 331 332 334 335 326 324 323 325 328 331 332 333 334 336 338 340 341 342 343 344 344 346 347 348 347 347 347 346 348 349 349 350 348 348 348 347 348 348 350 353 356 354 356 353 353 354 355 355 356 358
300 300 299 300 297 294 297 299 300 300 297 299 312 320 321 322 321 318 312 312 312 309 305 311 316 304 304 313 316 321 319 319 321 325 328 332 332 332 334 336 338 329 320 326 329 331 332 334 335 337 339 340 340 342 345 344 345 346 347 347 347 346 347 346 346 349 347 349 350 346 347 347 346 350 348 350 351 351 352 352 351 352 353 354 354 356
300 311 313 301 297 300 300 300 300 301 300 318 320 314 312 312 312 314 312 309 303 299 305 313 315 309 300 309 314 314 316 322 324 326 330 333 333 332 334 336 337 340 327 323 328 331 332 335 336 337 338 339 339 340 343 343 344 346 347 346 346 346 347 347 345 348 347 348 349 347 347 347 346 347 348 348 348 348 348 350 351 351 352 353 354 355
299 301 303 303 306 303 301 299 300 302 311 319 313 311 310 307 311 308 307 306 296 294 301 314 314 312 299 304 315 321 328 327 326 325 327 330 332 331 333 337 337 338 340 325 326 329 331 333 335 337 337 338 338 339 341 343 344 346 346 346 345 345 346 345 346 348 347 349 349 348 348 347 347 348 348 348 348 348 349 350 350 350 350 352 353 354
294 297 299 300 314 303 299 297 296 301 313 312 313 312 304 296 301 298 299 296 294 295 302 314 313 307 305 308 316 321 325 327 330 330 329 330 331 333 335 335 336 340 338 336 325 327 330 332 333 335 336 337 337 338 341 343 343 346 346 345 345 344 346 345 346 347 347 348 349 350 349 347 348 348 349 348 348 349 349 350 350 349 349 349 351 352
292 295 298 301 304 307 301 294 295 297 306 310 309 305 300 293 292 289 293 295 294 300 306 311 314 305 306 312 320 321 325 330 330 332 333 332 334 334 334 335 339 339 340 339 335 326 329 332 334 335 336 337 338 338 340 343 343 345 346 345 344 344 347 345 346 347 347 348 349 350 351 349 351 348 349 348 348 349 350 350 350 350 350 350 352 353
286 289 294 300 297 303 302 299 299 298 302 311 312 309 304 300 295 290 291 291 293 295 307 313 307 298 303 308 320 323 327 333 333 334 335 337 334 335 337 338 338 338 340 340 336 331 328 331 333 334 336 337 338 339 340 343 343 344 345 345 345 344 346 345 346 347 347 348 348 349 351 350 352 348 349 349 349 349 350 350 350 350 350 350 352 353
292 289 294 301 302 304 304 304 302 302 302 301 306 307 305 302 301 296 297 296 298 301 301 305 304 308 307 318 323 327 330 331 334 336 336 334 335 335 336 336 337 338 340 344 341 340 339 336 333 334 335 337 338 339 340 342 344 343 344 345 345 345 347 345 347 347 348 347 349 348 349 350 352 354 351 351 353 351 351 352 351 350 350 351 352 353
291 290 297 298 304 303 305 306 306 303 294 298 304 300 303 306 302 297 304 308 308 303 298 307 306 309 315 318 322 326 327 327 330 333 334 334 334 333 333 335 336 338 339 341 341 338 338 339 339 336 334 335 337 339 340 342 344 344 344 346 345 345 347 346 348 348 348 348 348 349 349 349 351 352 350 350 350 352 353 353 352 351 351 352 353 354
289 289 294 299 302 304 304 303 303 302 302 297 298 301 302 303 303 298 293 296 295 295 300 307 304 306 307 304 321 322 322 323 326 328 330 331 332 331 333 335 337 337 340 342 344 343 339 340 342 342 339 336 336 338 339 342 345 345 345 346 345 345 347 346 347 348 349 349 349 349 349 349 351 352 352 350 351 352 353 353 353 352 352 353 355 355
292 287 291 297 299 301 300 304 301 303 301 298 297 300 299 295 294 295 298 291 292 294 298 303 306 306 304 303 316 317 318 320 323 327 328 328 330 331 333 335 338 339 340 341 342 341 340 340 341 342 343 345 344 343 339 342 345 345 345 346 346 345 348 348 348 349 350 351 350 351 351 350 350 352 352 351 352 352 352 354 353 353 353 354 355 356
294 288 290 296 297 299 296 298 294 295 301 300 299 298 298 296 294 293 295 295 299 295 298 299 305 300 308 308 317 316 320 320 322 325 326 329 330 331 332 334 335 336 338 341 341 342 343 343 345 345 343 345 347 346 346 343 345 345 345 348 347 347 348 349 348 350 349 351 351 351 351 351 350 352 352 351 351 352 352 353 354 354 353 353 356 355
294 292 287 291 295 297 295 293 292 293 293 297 298 292 297 297 298 297 296 298 297 296 296 297 296 301 305 315 319 319 321 323 324 324 325 327 329 332 331 330 330 332 335 341 343 344 345 345 348 347 347 349 351 351 350 348 345 345 346 347 349 347 348 350 350 349 349 350 351 352 351 351 350 351 352 351 351 352 352 352 354 354 355 354 354 355
292 289 290 290 291 290 291 294 296 295 296 296 292 295 296 294 293 290 291 297 302 298 292 296 295 302 312 321 321 321 323 323 325 324 324 326 327 328 330 331 330 332 337 341 343 344 345 346 347 348 348 348 349 349 348 349 349 348 347 348 349 349 349 350 351 351 351 351 351 351 351 352 352 351 352 351 350 351 351 351 352 353 353 353 354 354
297 294 294 291 289 292 295 297 299 299 296 295 296 297 295 293 293 288 285 292 302 302 304 298 296 299 315 321 323 322 322 322 323 323 322 325 325 327 329 332 332 334 338 340 341 342 344 345 346 347 347 346 348 347 347 345 346 348 349 350 351 350 349 352 353 353 352 352 351 351 352 352 352 351 351 351 350 350 350 351 351 352 351 351 352 353
315 294 291 294 293 294 295 296 299 299 296 296 294 294 296 294 293 292 289 298 299 300 297 295 296 303 315 322 322 322 322 323 323 323 323 324 325 327 328 329 330 332 335 338 342 342 343 343 344 344 343 343 344 345 346 345 345 347 349 349 349 351 353 353 353 355 354 353 351 350 350 351 352 352 351 351 351 350 350 350 349 351 351 351 351 351
296 296 293 287 285 287 287 290 292 297 296 293 294 294 297 300 303 300 302 300 300 300 300 297 293 302 314 321 321 321 321 320 321 323 324 323 325 326 327 328 329 330 331 334 336 339 340 339 339 339 339 341 342 343 344 345 346 347 347 349 350 351 352 352 352 350 348 348 347 347 347 348 350 351 351 351 351 351 351 350 349 348 349 350 349 350
296 298 292 284 282 281 282 281 284 288 290 293 296 296 297 306 305 303 299 295 291 299 300 298 300 308 315 319 319 320 319 318 320 321 323 323 324 325 325 326 327 328 328 328 329 332 332 335 339 340 340 341 342 343 344 345 345 344 346 347 350 350 351 351 352 349 347 346 347 347 347 347 348 350 351 351 352 352 352 351 350 348 348 349 348 348
297 301 294 289 287 285 285 286 291 301 292 291 294 293 296 300 302 301 298 295 293 297 298 301 306 307 310 314 315 316 316 315 316 319 320 321 323 324 325 325 325 325 327 327 328 330 332 332 334 338 340 340 342 342 343 344 344 345 348 348 348 347 349 349 349 350 348 347 346 345 346 346 347 347 349 350 351 352 352 351 350 349 348 349 349 348
295 292 295 297 295 293 292 293 294 298 293 292 293 294 294 297 302 302 300 296 301 301 293 304 310 307 309 313 314 315 316 316 317 318 319 321 322 323 323 324 326 325 325 326 327 328 328 329 331 333 338 340 342 343 344 346 346 347 347 347 349 350 351 350 349 349 348 348 347 344 345 346 347 349 349 348 348 350 350 351 349 348 348 348 347 347
294 291 295 296 295 295 294 293 293 293 293 294 292 293 295 296 300 301 299 304 305 300 298 305 309 308 310 313 315 315 316 316 316 317 319 321 322 323 322 322 322 322 323 324 324 326 327 327 329 330 332 333 335 337 341 344 345 345 344 345 345 346 346 348 350 349 347 346 346 346 346 347 347 348 349 349 349 348 348 351 349 349 346 346 346 348
297 289 297 295 293 293 294 294 292 292 292 291 292 292 296 300 301 304 304 305 303 301 306 309 308 309 312 314 316 317 318 318 318 319 320 320 320 321 321 321 321 322 322 323 323 324 325 326 327 328 330 331 332 334 336 338 340 341 342 342 343 344 345 349 349 349 347 346 345 346 347 347 348 348 347 347 348 348 348 348 349 352 349 347 345 345
294 294 303 293 289 291 294 295 293 291 291 290 291 292 296 304 306 306 307 308 309 307 309 308 307 307 313 317 317 319 320 320 319 318 318 318 319 320 320 320 321 321 322 323 324 324 325 325 326 327 328 329 330 331 333 335 336 337 338 339 340 341 343 345 345 347 347 347 347 348 348 348 348 347 346 347 347 347 348 348 348 348 350 350 348 346
296 295 297 292 286 288 291 292 292 291 290 289 290 291 291 294 302 304 304 307 305 304 306 307 304 305 311 317 317 318 318 317 316 316 317 318 319 319 318 319 319 320 321 322 322 322 323 323 324 325 327 328 330 332 332 333 333 334 334 337 338 340 341 341 341 341 341 343 345 345 347 350 350 350 349 349 350 348 348 350 349 348 347 346 349 348
294 292 294 290 284 285 290 292 292 288 286 286 288 290 292 296 298 305 307 310 310 310 306 304 305 311 313 316 314 315 316 316 315 316 316 318 318 318 318 317 318 319 320 321 322 321 321 321 322 324 327 329 330 331 332 333 332 332 332 333 336 337 337 337 338 338 338 339 341 343 344 345 346 347 347 347 347 349 348 348 346 346 346 347 346 351
297 292 292 294 287 285 290 292 292 284 280 282 289 293 296 300 305 304 304 307 311 311 308 311 310 311 313 314 314 314 315 314 315 317 319 318 317 317 318 318 317 318 319 320 320 319 318 318 318 321 324 327 329 331 331 332 330 330 332 332 332 332 332 333 333 333 334 336 338 341 343 343 344 344 345 347 347 347 347 347 345 346 348 349 349 348
295 292 290 293 288 286 290 290 288 280 281 289 295 296 296 295 307 306 307 308 308 309 309 308 309 310 312 314 315 315 315 315 317 318 318 319 318 317 316 316 316 317 316 316 316 317 316 315 315 317 320 323 328 328 329 328 328 327 328 328 328 329 328 328 329 329 330 332 334 336 339 343 342 342 344 345 346 346 346 346 344 344 346 348 348 346
292 291 293 291 291 289 287 284 280 281 288 294 295 296 302 306 308 308 304 304 304 309 310 308 309 311 312 313 314 314 314 315 316 317 317 317 318 316 315 315 315 315 314 314 314 315 315 315 315 316 318 325 324 326 327 326 328 327 326 327 326 326 326 326 326 327 329 329 332 333 334 337 340 338 340 343 344 344 345 345 345 345 347 347 347 348
297 293 291 289 292 285 287 286 286 290 291 292 293 296 295 294 303 305 298 299 303 309 310 309 309 311 312 313 313 314 315 315 312 311 316 317 316 316 316 315 314 312 312 312 314 314 315 316 317 320 321 320 322 324 324 325 326 327 327 326 326 325 325 325 325 325 327 328 329 331 331 333 334 334 334 336 339 341 342 343 344 345 347 345 345 346
292 291 291 289 291 291 287 284 283 282 281 285 293 297 301 299 297 301 303 298 303 310 311 311 310 310 311 312 312 313 314 310 306 307 313 316 316 315 315 313 312 312 313 313 314 314 314 315 317 319 318 318 318 319 322 323 324 323 322 321 321 321 322 324 324 325 326 325 328 328 328 329 330 330 331 330 331 334 338 342 345 344 347 344 342 343
294 293 291 290 289 288 285 281 283 282 286 293 296 299 300 298 298 303 301 295 300 306 313 313 311 311 311 311 311 313 310 305 304 307 309 313 315 314 310 310 311 312 313 314 314 314 314 315 317 317 317 316 316 317 320 321 321 320 319 319 318 318 318 319 322 323 323 324 325 327 327 327 329 328 328 327 328 331 333 335 340 345 346 344 343 343
289 289 286 284 288 289 284 282 284 288 289 297 297 299 300 302 303 302 292 290 299 302 309 312 311 311 311 312 312 311 308 304 304 305 309 314 312 310 309 310 311 312 312 313 314 314 316 317 315 314 314 314 315 318 319 319 320 322 318 317 317 316 317 318 319 321 321 322 324 326 328 326 328 328 327 326 327 329 332 336 336 337 342 343 343 345
286 286 283 283 284 288 290 282 286 289 296 299 299 299 300 302 296 290 286 296 301 302 308 313 312 312 312 309 308 302 302 305 307 307 310 309 308 308 310 312 312 312 312 313 315 319 313 313 314 313 313 313 315 317 319 319 316 316 317 315 314 316 316 317 319 320 321 324 325 325 326 325 324 326 325 326 327 329 331 330 332 336 339 341 343 343
285 287 289 283 284 284 282 282 282 286 292 297 300 301 302 297 287 284 293 297 301 304 309 311 311 312 311 309 308 309 309 309 311 308 308 307 308 309 311 312 313 314 315 317 318 315 312 312 312 312 312 313 315 317 317 317 317 315 313 312 313 314 316 317 317 318 320 322 321 323 324 325 327 326 326 327 328 325 326 328 331 337 342 343 341 338
287 285 282 281 282 283 280 281 282 282 294 303 302 297 300 292 287 288 297 302 303 306 309 310 311 310 310 307 309 308 309 311 310 309 309 308 308 308 308 308 308 308 309 310 312 315 313 310 310 311 311 312 313 314 314 316 316 315 312 310 312 315 316 318 317 318 319 321 321 322 323 324 325 324 325 327 327 323 325 325 327 329 334 335 334 331
291 285 283 283 286 279 280 281 281 287 293 300 299 292 297 300 299 300 299 299 302 304 307 308 309 310 309 307 307 307 308 308 306 307 306 306 307 307 307 307 307 308 309 310 312 312 315 310 310 310 310 311 312 312 312 313 314 315 313 309 312 315 317 315 316 317 319 321 319 320 321 323 324 322 321 324 325 326 324 324 325 326 328 328 329 327
290 292 287 288 291 289 288 283 288 294 297 302 302 301 304 304 304 303 302 301 301 301 302 303 303 305 308 307 306 305 304 304 304 305 305 305 306 307 306 307 307 308 309 310 311 314 312 310 309 309 310 310 311 311 311 310 312 313 312 311 315 317 314 315 317 318 318 317 317 318 319 320 320 321 320 321 323 324 325 323 323 323 324 325 324 324
295 296 294 292 293 296 296 296 299 301 302 303 303 304 304 304 304 303 303 301 300 301 301 301 302 303 303 305 304 304 304 304 304 305 305 306 306 306 308 306 307 308 309 310 310 311 310 309 309 309 309 309 310 311 312 309 310 311 310 312 314 314 313 316 317 316 317 316 317 316 317 318 319 322 323 323 322 325 324 322 323 324 323 321 321 322
295 297 293 292 294 290 289 294 298 300 301 302 302 302 303 304 304 303 302 302 302 302 302 302 303 304 306 308 306 304 303 305 304 305 306 306 306 306 306 306 306 307 308 308 311 312 308 309 308 310 310 309 308 309 311 309 311 311 311 313 313 313 313 314 317 317 316 313 314 315 316 317 320 321 321 321 321 321 324 323 320 320 322 320 318 320
294 301 293 294 291 289 290 295 299 301 301 303 302 300 300 302 303 305 304 303 303 303 303 303 304 306 308 308 307 308 309 309 307 305 305 305 305 306 305 305 305 306 307 308 309 308 306 305 306 308 309 308 307 308 310 311 311 312 312 314 314 312 311 315 316 315 312 313 313 315 317 317 324 323 318 319 321 319 318 319 321 319 318 317 318 319
296 302 292 294 291 294 297 298 299 301 301 303 304 304 304 303 302 304 304 304 304 303 302 302 304 304 305 305 306 306 305 305 306 305 305 305 305 304 304 305 306 306 306 306 307 309 305 308 309 308 309 307 307 308 310 311 312 313 313 314 314 313 313 316 317 316 313 313 312 313 320 320 317 317 318 318 319 319 317 318 319 319 316 316 320 321
297 293 296 294 290 289 291 295 297 295 294 299 302 303 305 305 302 302 303 303 303 302 302 302 302 303 303 304 304 304 303 303 304 305 305 305 304 304 304 305 305 304 304 306 307 307 310 310 308 308 309 306 306 309 312 311 312 312 314 313 313 314 315 316 316 314 313 314 314 315 316 318 317 316 318 317 317 319 320 329 313 314 316 317 322 314
296 295 293 292 287 289 294 299 299 296 298 300 302 304 305 306 305 306 305 303 302 303 303 303 301 301 302 303 305 305 304 304 304 305 305 305 304 305 305 305 304 304 304 304 304 305 307 308 310 310 309 306 310 311 312 312 311 311 312 312 312 312 312 312 315 313 312 315 314 318 321 318 317 317 316 317 315 317 317 317 318 308 307 312 316 311
Wind_Speed
3 4 5 7 7 6 3 6 7 3 3 5 5 7 10 5 5 6 7 11 13 10 8 8 8 8 10 8 4 3 6 6 13 14 12 12 12 11 10 10 10 10 11 11 13 13 12 13 11 10 9 9 9 8 9 9 8 8 8 7 7 6 7 7 7 6 6 5 4 2 4 4 4 4 4 4 4 4 5 4 4 4 4 3 3 3
3 3 7 7 6 6 5 5 4 0 0 5 7 6 6 5 4 1 6 8 2 3 5 6 7 8 11 10 7 3 6 11 15 14 14 13 13 11 11 11 10 10 7 10 10 11 11 10 11 9 8 8 9 7 8 9 9 8 8 8 6 6 7 7 8 7 6 5 5 5 5 3 4 5 5 3 3 3 4 4 4 3 3 3 3 3
2 7 6 7 5 3 3 3 1 1 2 3 6 6 7 3 5 7 8 5 4 3 5 7 9 6 7 8 5 2 3 2 3 14 14 14 13 11 11 10 10 9 9 11 12 12 12 12 11 10 9 9 11 11 11 8 8 8 8 7 6 6 7 7 7 7 6 3 3 3 4 4 3 1 1 2 1 2 3 4 4 4 3 3 3 3
2 7 8 7 3 4 2 3 1 0 1 5 6 7 7 9 8 4 4 5 3 0 8 8 8 2 3 4 5 1 3 4 3 4 13 13 14 13 13 12 12 12 12 13 13 13 12 12 11 10 10 10 8 8 7 8 9 7 6 6 7 7 6 7 7 7 6 6 3 1 3 2 2 2 2 2 2 1 2 3 3 3 4 3 3 3
7 6 1 3 3 6 3 2 4 3 3 2 6 5 6 11 3 5 9 6 6 6 9 10 5 1 2 6 6 4 0 5 4 2 7 8 9 12 9 10 13 14 14 14 13 13 13 12 12 12 11 9 9 9 9 9 9 7 8 7 8 7 7 7 7 7 5 4 2 2 3 2 2 4 3 2 1 3 3 2 3 4 3 3 3 3
7 10 2 2 3 3 3 3 4 6 4 2 6 8 11 12 9 13 13 11 2 2 6 13 6 5 5 4 8 3 1 5 2 3 8 7 6 5 8 11 11 12 13 15 15 15 14 13 11 10 11 11 10 10 9 10 10 7 7 6 7 6 6 7 7 6 6 6 6 4 4 4 2 2 4 5 6 5 5 6 3 3 4 4 3 3
7 2 4 4 4 4 4 4 4 6 5 2 6 8 8 10 13 17 13 8 4 5 9 4 6 3 3 7 8 5 5 8 3 0 3 5 4 6 8 10 10 13 11 12 13 13 13 13 12 11 12 12 12 11 9 8 8 8 8 7 7 7 6 6 6 6 5 6 6 7 6 6 6 6 4 4 4 5 4 4 5 5 4 4 4 3
2 1 3 2 3 5 3 6 4 8 6 4 3 13 11 11 15 15 12 5 2 5 5 2 2 4 2 7 6 7 5 7 5 4 2 3 3 6 5 8 9 12 12 12 13 14 15 14 14 14 13 12 13 11 9 8 7 9 8 8 7 6 6 6 6 6 6 7 6 6 5 5 6 6 6 6 5 3 4 5 4 4 4 4 4 4
4 4 4 4 4 5 7 5 5 9 6 6 4 14 15 14 13 14 9 5 7 9 6 5 2 3 3 1 5 7 10 9 10 7 5 3 3 3 4 4 6 10 12 13 13 14 15 15 14 13 13 11 10 10 10 10 9 8 8 8 6 6 6 5 5 6 5 6 7 7 6 5 5 5 5 4 4 5 4 5 3 4 4 3 3 3
2 6 6 7 7 7 7 6 8 11 9 4 5 8 8 7 9 8 3 4 5 5 6 11 8 3 1 3 6 4 6 10 11 10 7 5 5 4 4 3 2 3 5 11 15 15 15 15 14 14 12 11 12 11 10 9 8 8 7 7 7 6 5 5 4 5 4 4 6 6 6 7 5 3 3 4 5 4 4 5 4 4 4 4 3 3
6 2 5 3 5 7 7 7 9 13 6 7 16 15 11 11 7 8 4 2 3 1 6 9 10 4 2 6 10 13 13 13 10 6 4 3 2 3 2 4 2 2 4 6 9 12 14 14 14 12 13 12 10 8 9 9 9 8 9 8 8 7 5 5 5 4 4 3 5 6 6 7 7 5 5 4 3 3 3 5 4 4 5 4 4 4
4 2 2 3 7 4 5 3 5 9 8 13 4 9 11 10 8 9 6 3 2 3 4 13 11 2 2 2 7 9 5 10 13 13 11 8 5 4 3 5 9 10 6 4 9 10 11 10 10 11 11 11 10 9 9 8 8 9 9 9 9 6 6 5 5 5 4 4 4 4 5 6 6 7 6 7 6 5 6 5 5 4 4 4 4 3
4 4 3 5 3 11 2 4 1 5 7 7 9 9 11 2 3 1 6 5 1 4 2 12 11 1 6 2 3 10 4 7 10 10 11 9 6 5 11 11 6 5 7 4 4 8 9 12 12 11 11 10 10 11 12 11 10 9 9 10 10 9 7 7 6 6 5 4 4 4 5 5 5 6 7 6 6 5 6 5 5 5 5 4 4 5
6 3 3 4 3 4 6 6 2 4 6 10 11 9 10 5 3 2 4 3 3 4 2 11 11 3 2 2 4 9 10 8 10 8 7 8 4 10 9 7 4 3 4 5 6 8 11 12 13 14 13 13 12 12 12 11 10 9 9 10 11 11 8 6 6 6 6 5 5 4 5 5 5 5 6 6 6 6 6 6 6 6 6 6 6 6
2 2 5 3 2 3 6 8 10 8 8 10 8 11 8 9 7 5 4 4 4 1 3 9 8 4 1 1 7 7 7 7 8 9 6 6 12 10 7 5 5 4 2 5 6 6 9 11 13 14 13 13 13 13 12 11 11 10 10 11 11 9 8 7 7 6 6 6 5 4 4 5 4 5 5 6 6 6 6 5 6 6 5 6 6 6
5 5 7 5 3 3 8 4 6 9 7 2 4 6 10 8 6 8 9 7 6 4 5 1 2 0 1 1 4 2 7 7 9 10 12 8 9 11 8 7 4 4 3 1 6 5 2 4 7 8 10 12 12 13 12 12 11 11 11 12 12 12 10 9 8 7 7 6 5 5 5 4 4 4 4 4 4 5 6 6 7 6 6 6 5 5
2 2 3 6 1 4 8 5 0 7 7 4 6 7 7 5 7 5 2 1 5 6 1 1 1 2 3 2 6 6 9 8 7 8 8 9 9 9 9 8 8 7 6 3 4 5 6 6 4 6 8 7 9 11 12 13 13 14 12 11 11 10 9 9 10 9 7 7 6 6 5 4 4 4 5 5 5 6 5 6 6 6 6 5 4 5
1 6 4 3 0 0 2 4 4 1 7 5 6 8 1 3 4 6 4 0 3 4 1 1 1 2 1 1 2 7 11 10 9 7 6 8 11 12 10 9 9 8 5 3 2 2 5 7 7 6 7 9 10 11 11 12 12 12 12 13 13 11 11 11 11 10 9 8 8 7 6 6 5 4 5 5 6 5 5 5 5 4 5 6 6 5
3 2 3 0 4 5 3 6 7 2 1 8 7 5 5 1 3 1 6 2 3 1 1 2 1 1 1 1 1 7 7 6 7 8 8 9 10 10 9 8 7 6 6 6 7 6 5 6 7 6 6 5 6 7 9 10 10 8 6 8 11 13 14 14 11 10 9 9 8 7 8 7 5 4 4 4 4 4 5 6 5 5 6 5 4 5
1 2 4 1 1 1 3 5 4 0 3 3 5 3 1 4 3 4 5 5 6 5 3 2 1 2 1 0 3 9 11 10 11 10 9 11 10 10 9 9 7 6 6 6 5 5 5 4 5 6 7 6 6 6 7 9 8 9 8 8 8 6 5 4 6 8 9 9 8 8 7 6 6 5 5 4 5 6 6 6 6 6 5 6 4 5
1 1 1 4 5 1 2 1 5 6 4 1 3 2 0 2 2 5 2 2 6 7 4 6 1 4 1 2 3 8 8 6 8 11 9 7 7 7 8 7 6 5 5 6 5 5 6 6 5 4 4 4 4 4 3 5 10 8 6 7 7 9 9 9 8 6 6 7 8 8 9 9 8 8 6 5 5 6 6 5 5 5 6 4 5 4
2 2 0 4 2 1 1 3 4 7 7 6 5 2 4 4 3 4 1 2 3 6 6 6 5 1 3 3 3 8 5 5 7 12 9 6 7 7 6 6 5 5 5 7 6 6 5 5 5 6 4 3 4 6 6 5 4 5 5 2 4 7 8 9 9 9 9 8 8 9 9 9 7 7 6 6 5 5 6 5 5 5 3 5 5 5
1 1 2 1 1 1 2 5 2 3 5 5 7 1 4 2 6 4 4 3 3 2 4 2 6 2 1 2 3 7 7 8 6 7 10 10 8 7 5 6 6 3 7 8 7 6 6 6 6 6 6 4 5 5 7 8 8 8 8 5 2 1 4 4 7 7 7 6 6 7 7 7 7 6 7 7 6 6 6 6 5 4 5 5 5 4
2 3 4 3 6 5 4 3 2 4 4 4 3 2 2 2 3 6 5 7 6 3 4 2 3 1 1 1 5 8 8 9 8 8 7 5 10 10 6 4 7 7 7 7 7 6 6 7 7 8 8 7 5 5 5 6 6 7 8 9 9 8 6 4 2 2 3 4 3 3 3 4 4 5 6 7 7 7 6 6 5 5 6 6 5 6
1 1 3 1 2 4 5 5 7 7 6 2 0 1 2 4 6 3 7 2 7 5 5 9 6 4 4 4 5 10 9 9 8 5 8 10 6 8 8 7 6 8 9 7 7 7 8 9 10 9 8 6 6 4 4 3 3 7 8 6 3 4 5 4 4 5 5 5 5 5 5 3 3 6 8 8 7 8 7 6 6 5 6 6 6 6
5 1 2 1 4 5 2 0 2 2 1 4 1 2 3 9 12 7 4 1 4 2 4 4 4 2 7 6 7 7 9 9 8 8 7 5 6 6 6 7 6 8 7 7 7 9 9 6 5 8 6 3 2 3 4 5 7 8 6 5 5 5 3 4 5 7 7 7 8 7 7 7 8 9 9 9 8 8 7 7 6 6 5 6 8 7
2 2 4 3 5 5 3 3 5 1 2 2 0 3 2 1 2 6 5 5 7 5 5 1 8 16 11 12 9 9 8 10 10 8 8 7 7 7 6 6 7 7 7 8 7 7 6 8 8 8 7 5 2 2 4 5 7 6 6 6 7 6 5 5 2 4 2 4 5 4 4 6 7 6 4 3 4 5 6 6 7 7 7 7 8 8
3 6 6 1 1 1 2 3 5 1 1 2 0 1 2 4 3 5 8 4 7 12 1 1 13 18 13 12 11 12 10 9 9 9 9 7 7 7 7 8 9 9 8 8 8 8 8 9 9 10 8 5 5 4 4 4 6 6 6 6 7 6 5 5 5 7 5 4 4 5 6 7 6 3 1 0 1 1 3 5 6 6 7 6 8 9
2 3 7 3 4 4 3 3 4 2 2 1 2 1 3 1 6 5 1 6 11 9 11 13 13 15 15 13 12 11 12 11 11 10 9 9 9 9 9 10 9 8 8 10 9 8 8 10 9 10 9 6 7 7 6 7 7 7 7 6 6 3 1 2 2 4 5 5 3 2 3 5 4 3 2 1 1 2 3 2 3 6 6 6 7 8
3 4 5 3 4 7 9 8 5 4 3 4 6 5 5 7 4 8 8 3 2 2 7 19 12 10 12 14 12 11 11 11 10 8 9 10 10 9 10 11 10 8 8 9 9 8 8 9 9 9 9 8 7 6 7 8 9 9 7 6 5 5 5 0 5 5 5 3 1 2 3 3 2 2 1 2 3 2 2 4 3 5 3 5 7 8
4 2 7 4 2 4 7 9 7 7 6 5 6 8 7 7 8 6 7 8 15 13 13 14 12 10 3 8 10 9 10 9 11 12 12 9 9 10 10 10 10 9 8 9 8 7 8 7 9 9 10 9 8 8 8 7 7 8 9 8 8 8 7 7 6 5 5 3 1 6 7 3 0 1 1 2 3 2 2 4 4 3 7 7 4 5
6 1 2 4 3 3 5 7 8 4 5 6 7 8 7 5 6 0 4 2 6 10 12 13 10 7 7 8 10 11 12 13 14 12 12 9 8 9 10 9 9 8 8 8 8 8 8 8 9 10 9 8 9 9 8 8 8 9 8 8 8 6 7 8 8 7 6 5 4 5 4 3 3 3 2 2 2 1 1 2 1 1 3 11 11 5
2 2 4 4 2 2 6 3 6 5 3 5 6 6 3 2 2 4 4 3 9 18 14 12 12 10 13 13 14 12 14 12 10 11 12 11 9 10 10 10 9 8 8 8 9 8 7 8 8 8 9 8 8 8 8 7 8 8 6 7 6 5 7 7 6 7 7 7 7 6 6 6 7 7 6 6 6 5 3 3 2 2 4 8 11 8
1 4 4 0 1 2 8 9 3 3 2 1 3 2 1 2 6 5 3 6 12 7 7 7 13 12 13 14 16 15 14 11 11 7 8 13 12 11 10 10 9 8 8 8 8 8 7 6 6 7 7 8 8 7 7 7 7 6 6 6 6 8 6 6 7 7 7 7 6 5 5 6 7 7 6 5 6 6 5 5 4 3 3 4 4 6
3 2 3 1 1 3 6 6 2 2 3 4 8 7 5 6 5 8 9 6 1 7 14 13 12 14 12 11 12 13 11 8 7 11 9 9 10 11 12 10 10 9 8 7 7 7 6 6 6 7 7 7 6 5 6 7 5 5 6 6 8 7 7 7 8 8 7 8 7 7 6 5 6 7 6 6 5 5 4 2 1 1 5 4 3 3
2 3 0 3 1 1 3 4 2 2 3 5 8 5 5 5 10 13 6 6 5 3 12 13 11 12 12 13 12 11 12 12 9 5 8 6 8 12 11 10 10 9 8 6 8 6 6 6 7 7 6 4 6 6 5 4 3 6 5 5 6 6 7 7 8 8 8 9 8 9 8 8 7 6 6 5 4 3 2 0 0 2 3 4 5 4
4 3 2 1 2 1 1 1 3 3 3 4 3 3 3 2 2 9 8 2 5 1 8 13 10 10 12 13 14 13 13 13 9 4 3 7 5 5 11 10 9 9 9 7 8 7 5 6 7 6 7 7 7 6 4 3 4 5 6 7 6 6 6 7 8 7 6 6 7 7 7 7 7 6 5 4 3 2 2 2 1 1 1 4 4 4
3 4 1 4 1 2 1 2 4 3 1 4 3 5 0 2 4 6 3 3 5 4 2 16 15 14 14 15 15 15 15 13 9 5 4 4 6 8 6 8 8 7 8 10 9 8 7 6 7 8 9 9 8 6 4 5 6 7 8 8 8 8 8 8 8 6 6 5 5 5 5 6 6 6 6 6 6 4 4 3 2 2 1 3 4 5
6 6 5 5 1 2 3 2 1 2 2 3 7 7 8 4 3 2 6 1 3 2 2 7 16 17 20 18 16 16 13 12 10 8 6 8 8 9 12 9 10 10 9 8 10 10 8 7 8 8 9 10 9 6 5 5 7 8 8 7 7 8 9 8 7 7 6 5 3 3 3 4 4 5 5 6 6 5 5 5 4 3 3 4 4 4
6 5 4 5 3 1 3 3 1 2 1 3 4 6 6 7 1 4 5 4 3 2 4 6 14 12 10 13 16 15 12 14 12 9 9 11 10 7 11 13 11 11 10 9 7 8 7 6 10 11 10 9 6 5 6 7 8 8 7 6 7 9 8 7 6 4 4 5 4 3 3 3 4 4 5 6 6 6 5 4 4 3 2 2 2 3
2 2 4 2 2 0 2 1 1 3 4 4 5 6 8 3 3 4 6 6 3 2 5 6 10 10 9 7 4 6 6 2 9 11 11 10 11 9 7 9 9 10 10 10 9 8 9 9 9 8 7 5 5 6 6 6 8 7 5 5 8 7 5 4 4 5 5 5 6 6 6 5 4 4 5 4 5 5 5 6 6 5 3 3 3 4
1 1 1 2 1 0 1 1 3 4 5 2 6 4 4 1 0 2 5 2 3 6 7 10 8 8 9 9 6 9 11 12 7 8 11 10 12 10 10 10 10 9 8 8 9 9 9 9 9 8 7 6 6 6 5 6 6 4 4 5 6 4 3 3 4 4 5 5 5 6 6 5 5 3 3 4 4 5 6 6 6 6 6 5 6 6
1 2 1 0 1 1 3 3 2 1 1 1 8 5 3 2 4 3 2 2 2 9 12 10 12 10 13 12 10 10 14 18 12 7 5 7 10 11 11 10 11 10 10 9 8 7 9 8 8 7 5 4 5 5 5 6 5 4 4 5 3 3 3 3 4 4 4 4 5 5 5 5 5 4 3 3 3 3 4 5 6 7 7 7 7 7
2 2 0 2 3 1 1 1 1 3 5 3 0 0 2 1 2 2 4 4 2 5 9 9 8 13 15 16 15 15 16 14 12 15 13 8 8 9 9 8 8 8 8 7 8 8 9 8 6 6 5 5 5 5 5 5 4 4 4 5 4 3 3 4 4 4 4 4 4 4 5 5 5 4 3 2 2 3 4 5 4 5 6 5 6 5
2 0 4 1 2 1 1 2 4 3 4 4 1 1 0 2 2 1 4 3 6 3 1 7 6 5 8 16 15 18 14 13 15 13 14 11 10 10 10 9 9 9 9 9 8 7 7 8 7 6 5 4 5 4 4 4 5 4 5 5 5 5 5 4 4 4 4 5 4 4 4 5 5 5 4 3 2 3 3 3 4 6 5 5 6 6
1 2 1 2 0 1 1 4 3 3 4 7 5 2 2 3 3 3 6 8 4 4 4 8 7 9 5 8 16 11 14 14 15 12 12 11 10 8 8 8 7 7 8 8 7 7 7 7 6 6 6 5 4 4 3 3 3 4 3 3 4 5 4 4 4 4 4 4 4 5 4 4 5 5 5 4 1 2 2 2 3 3 3 5 5 4
2 1 1 1 1 4 1 4 4 3 5 7 6 5 3 2 2 2 6 7 7 8 9 8 12 11 12 11 9 6 5 8 12 10 10 10 10 9 9 9 8 8 9 9 7 7 6 6 6 6 6 5 2 2 2 3 3 3 3 4 4 3 3 4 3 3 3 4 4 4 4 5 5 4 5 4 4 1 1 1 3 3 3 4 5 4
1 0 1 1 1 1 1 3 2 0 3 4 5 7 6 7 4 2 5 5 6 7 9 10 10 11 13 14 15 12 3 3 3 6 9 9 9 8 8 8 8 6 5 7 6 7 6 6 6 6 5 4 2 2 3 4 5 5 5 5 4 3 3 4 3 3 4 5 4 4 4 4 8 7 6 6 3 3 4 1 2 3 3 4 3 4
3 3 0 0 1 1 1 1 3 2 8 9 10 7 5 4 5 2 4 5 8 9 7 5 7 11 11 15 16 18 16 13 13 10 9 7 7 7 8 8 8 9 8 7 5 6 7 6 7 6 5 3 3 4 5 5 5 5 6 5 5 5 5 4 4 4 4 4 4 5 4 4 3 4 5 5 6 3 3 1 4 4 3 2 2 2
1 1 0 1 1 1 1 1 2 2 0 6 8 9 9 7 6 5 2 5 5 7 5 7 4 3 8 11 11 11 13 8 7 9 11 9 9 8 8 8 8 8 6 5 5 6 6 7 7 6 5 3 3 4 5 5 5 4 5 5 5 5 6 5 4 5 6 5 5 5 5 5 5 5 5 5 5 5 5 3 5 4 2 3 4 4
1 1 1 1 1 1 2 2 1 2 3 1 3 6 6 7 6 8 7 5 3 1 3 9 6 4 6 5 9 13 12 13 11 10 10 9 9 10 10 10 9 7 7 5 7 7 8 7 7 6 5 3 4 5 4 4 4 4 4 4 4 5 5 5 5 5 6 6 5 6 5 5 5 5 5 5 3 2 2 3 7 8 3 3 4 1
Wind_Direction
140 175 190 202 201 193 167 171 198 155 149 208 194 153 170 152 79 124 138 165 150 145 175 182 164 155 149 171 195 265 300 208 177 177 179 176 177 180 182 181 175 175 180 175 170 170 171 171 171 168 167 169 167 164 167 167 163 165 171 166 172 158 146 146 142 148 152 146 133 127 185 183 173 171 171 177 183 179 173 174 175 172 159 148 143 141
77 184 233 214 194 178 179 195 215 318 310 203 168 138 119 138 131 102 127 149 184 144 146 103 159 152 145 169 170 220 223 212 180 182 182 181 179 183 180 180 176 177 171 162 164 169 168 169 168 164 164 164 162 174 170 173 168 166 165 171 159 152 155 157 159 161 171 171 175 162 182 177 156 168 166 182 204 183 171 165 164 168 153 148 150 137
181 213 229 220 204 141 130 199 111 162 93 53 137 124 113 82 108 61 93 133 188 109 134 133 155 160 132 159 183 208 281 291 230 187 185 180 181 184 181 177 170 165 167 165 166 166 169 168 166 166 167 174 174 172 176 174 162 163 165 167 147 160 160 164 163 157 173 187 177 153 163 163 140 138 146 141 146 176 161 158 161 161 154 148 148 142
253 268 237 230 147 132 174 210 107 42 89 108 107 141 173 169 153 151 151 125 5 183 146 165 127 104 84 112 196 177 301 297 304 220 189 180 180 185 182 174 170 168 162 167 166 167 168 166 168 168 171 175 170 170 171 171 170 165 168 163 149 160 162 163 171 170 173 174 177 86 125 119 100 168 144 122 119 162 140 167 159 161 157 155 155 150
221 242 210 164 148 160 189 190 127 151 222 207 171 162 145 178 217 142 154 124 100 44 128 124 94 91 159 174 211 180 323 272 310 101 182 191 191 186 175 169 168 168 166 164 167 167 165 166 171 174 175 168 169 175 179 177 174 172 173 168 156 158 168 165 170 167 160 144 104 73 76 80 55 61 91 105 175 182 180 156 169 183 164 164 162 157
281 265 164 133 162 145 158 208 180 149 205 264 227 193 178 181 123 115 131 129 107 134 196 148 150 196 187 219 208 148 157 270 318 131 171 171 175 185 169 174 174 166 164 163 168 170 168 169 171 172 170 170 172 179 186 182 174 167 166 163 157 153 162 165 168 159 154 164 151 132 139 139 130 131 146 180 189 184 182 186 175 162 176 171 168 162
230 252 127 188 183 180 155 201 202 156 178 129 255 178 171 153 132 140 150 145 138 171 207 238 155 185 186 214 202 168 206 249 291 176 155 149 170 180 178 171 175 167 162 164 166 165 166 170 167 173 176 173 174 184 181 180 175 166 165 165 164 163 165 167 165 155 147 153 159 165 174 170 170 171 205 197 189 180 178 151 167 173 179 178 170 175
246 240 171 161 169 193 164 214 211 151 124 227 227 140 155 146 145 155 152 154 134 72 86 73 63 135 190 231 195 161 204 246 268 254 190 164 166 178 176 177 175 171 160 163 168 171 170 171 171 176 180 176 179 174 172 178 173 168 170 166 169 169 169 175 157 154 155 156 164 167 177 175 174 183 188 186 187 168 154 156 169 164 181 183 182 173
194 243 175 196 191 193 212 196 169 160 163 216 170 146 166 162 147 149 148 149 146 121 154 204 242 68 220 139 126 148 192 209 236 230 199 196 178 174 152 168 187 176 163 162 169 172 173 174 177 174 178 180 168 166 173 180 176 172 170 168 164 170 174 184 164 153 158 155 165 169 170 177 193 186 187 171 160 158 160 157 161 169 180 186 195 186
264 205 213 185 167 215 223 195 171 171 209 263 96 69 73 87 127 128 103 141 153 107 182 195 195 138 245 178 172 167 214 207 213 217 201 188 178 175 157 141 113 166 157 168 171 173 174 176 177 179 171 166 174 175 174 171 164 166 165 170 167 177 182 181 171 156 161 162 157 165 174 174 179 166 142 155 159 161 161 167 175 178 181 190 198 203
239 261 180 153 198 212 202 210 168 189 203 123 105 90 63 45 27 10 28 356 59 101 222 178 187 132 206 214 192 180 207 189 185 205 210 165 166 158 163 133 90 83 161 166 174 174 176 177 173 167 173 175 166 166 166 165 169 167 170 173 175 183 183 185 176 162 172 169 168 171 177 176 170 164 154 156 170 155 157 177 184 183 194 188 200 195
306 253 185 236 199 208 159 203 178 182 152 128 126 116 89 22 18 28 348 329 107 254 250 172 184 138 200 257 205 222 63 168 175 187 187 189 184 173 128 67 46 43 13 186 167 178 174 170 172 170 171 170 168 162 166 169 166 170 174 172 176 180 186 191 178 168 175 171 185 179 177 178 175 163 166 175 180 183 183 186 189 188 177 203 201 199
313 242 222 248 199 188 165 180 332 148 171 116 126 126 115 95 49 17 7 330 240 199 233 168 158 97 251 216 262 190 203 176 180 175 184 181 184 123 72 64 64 72 78 58 173 168 172 172 171 175 175 167 167 173 173 172 172 172 173 175 176 186 186 190 181 178 174 177 188 182 184 185 173 173 173 179 181 185 188 188 186 176 190 189 195 204
277 274 293 246 267 192 142 157 169 124 184 126 146 141 113 117 101 143 222 241 296 283 171 165 156 203 265 283 329 197 181 176 171 149 159 190 124 88 101 118 121 119 128 120 145 174 178 178 178 176 172 176 178 177 174 173 172 173 176 179 182 187 183 183 184 181 176 186 189 184 185 180 171 181 180 182 182 189 192 185 190 189 187 190 198 193
55 311 286 173 242 190 160 178 176 158 170 166 149 155 153 147 155 171 193 198 203 239 38 133 132 236 158 273 332 307 163 140 149 143 147 103 104 109 105 120 154 148 193 133 126 156 181 187 181 176 178 178 179 178 175 176 177 173 176 180 185 181 184 181 186 182 183 186 189 192 191 175 172 182 186 191 191 187 189 192 189 195 192 194 201 194
208 216 257 227 235 160 152 202 138 119 135 207 145 64 135 185 151 159 190 173 164 163 94 145 211 228 207 264 321 329 109 110 119 120 119 111 112 115 124 139 171 166 166 353 104 111 118 174 183 184 183 181 179 179 179 179 176 178 181 182 183 183 182 184 183 186 187 189 185 190 193 190 179 185 192 197 199 199 195 190 189 193 196 205 198 205
15 284 261 313 358 170 166 159 136 131 158 202 137 165 200 176 117 90 40 53 87 73 22 179 283 314 265 6 29 42 82 96 113 115 125 126 118 117 135 155 171 172 168 180 141 144 135 111 119 167 181 188 186 182 183 182 182 184 181 179 183 183 179 183 186 184 184 184 185 198 196 190 192 188 192 197 200 201 200 194 194 192 201 201 197 200
170 255 303 54 357 279 241 135 127 81 141 104 155 211 121 68 110 124 163 354 57 114 223 46 289 276 81 215 351 69 71 58 63 72 101 126 135 149 159 164 168 166 171 162 151 173 144 131 136 148 170 182 185 187 189 189 189 186 181 180 180 178 183 188 184 183 184 184 190 193 198 202 202 200 201 198 195 196 194 203 202 197 196 207 204 200
111 350 295 262 215 270 341 83 46 44 66 146 179 181 116 200 203 326 108 146 111 67 161 328 349 262 141 227 118 94 104 98 104 115 124 137 149 150 160 163 141 134 132 153 176 180 162 140 140 144 148 145 160 185 193 193 186 180 187 189 183 185 189 186 185 185 186 185 189 191 196 195 201 204 207 208 196 183 194 202 201 202 208 205 205 205
38 159 295 301 175 282 27 82 144 295 359 39 82 65 275 109 147 145 192 162 119 147 131 324 329 256 169 215 108 113 141 158 149 138 136 144 148 152 155 151 143 138 149 164 186 173 159 145 144 133 130 131 144 156 174 181 180 183 176 175 191 193 180 180 195 187 187 191 190 193 190 193 190 195 199 204 194 192 199 203 197 206 209 213 200 211
256 111 202 283 301 17 176 3 171 166 138 39 51 5 1 17 230 108 47 104 152 152 168 136 217 261 313 263 135 131 132 128 136 128 124 116 120 124 126 115 112 122 126 138 159 164 164 163 149 131 120 132 116 93 96 159 177 177 166 174 175 171 175 184 188 192 203 194 199 193 196 195 188 193 191 195 201 200 202 203 201 203 211 200 214 207
44 10 206 312 35 73 248 249 169 159 158 147 149 175 163 141 122 95 279 347 84 116 163 151 210 308 345 0 143 117 111 103 117 118 106 95 99 94 99 102 109 120 126 131 130 129 136 135 118 110 112 114 107 104 90 63 79 133 149 161 181 176 182 182 185 191 192 196 199 201 202 203 196 191 184 194 199 204 206 205 205 204 201 211 220 203
139 155 94 318 177 206 254 283 297 180 121 144 120 170 161 116 110 105 143 241 63 33 76 84 103 311 21 318 116 111 107 97 82 97 106 105 84 82 94 113 113 122 136 130 123 120 113 100 97 109 110 110 96 97 96 92 103 108 118 125 97 231 216 195 200 199 192 192 197 208 207 204 205 197 193 196 198 206 205 207 207 197 202 216 224 217
134 41 9 305 317 295 306 294 323 52 86 57 20 51 92 150 174 167 172 172 118 141 79 10 68 212 127 107 128 114 116 115 111 104 87 66 114 111 119 122 124 116 79 82 109 103 90 89 90 89 93 93 98 112 118 128 148 147 147 160 168 165 142 116 96 120 133 130 147 178 200 217 218 215 217 213 212 208 209 204 203 199 208 215 220 222
28 335 110 358 16 346 344 347 4 337 49 76 311 321 125 90 71 118 101 43 100 201 169 140 180 196 181 161 134 132 133 126 124 127 125 125 117 113 120 106 80 93 98 92 86 102 104 96 95 99 108 126 136 124 101 102 92 58 49 41 57 68 88 107 117 115 115 144 176 179 165 169 193 214 218 223 220 221 216 212 205 200 210 212 221 225
85 11 79 105 137 141 163 5 330 322 271 280 284 15 32 121 137 120 109 41 107 227 115 120 116 92 135 150 151 145 136 127 133 140 121 110 121 123 115 105 106 97 93 93 90 86 83 92 115 122 125 117 97 121 117 105 98 103 121 147 133 110 156 162 147 137 154 179 185 189 186 180 189 202 212 216 218 221 220 215 213 210 212 211 222 225
117 76 87 147 135 154 195 219 260 182 0 79 24 85 77 57 42 79 98 106 159 177 116 304 158 141 153 164 158 147 141 138 138 133 124 125 119 109 106 101 100 98 96 85 80 85 91 85 89 87 94 93 73 0 47 73 83 106 135 140 127 151 202 215 120 84 157 206 192 183 207 218 211 195 182 193 227 232 220 219 217 215 218 213 221 222
58 53 359 111 139 200 201 224 298 319 118 338 2 94 98 105 115 117 143 205 158 110 298 128 157 142 164 163 159 152 147 137 134 128 126 122 115 113 105 104 100 96 97 95 84 80 82 86 87 96 107 123 115 95 67 74 98 120 121 121 134 159 189 194 155 152 175 218 211 197 206 232 238 230 214 129 23 335 264 234 219 220 220 215 221 223
113 78 337 15 3 21 13 337 316 0 73 91 19 35 90 133 133 131 296 158 150 158 181 166 170 155 162 165 157 150 145 144 140 138 131 124 115 109 103 95 88 87 90 88 86 82 81 81 85 92 101 100 89 87 88 86 88 90 91 89 105 103 56 7 78 140 195 227 246 253 233 224 239 251 266 223 252 292 305 307 258 225 217 220 220 224
81 46 341 20 328 8 5 358 355 55 28 41 21 28 61 71 71 109 92 56 71 94 138 148 160 155 157 155 148 145 143 135 130 124 122 121 119 113 108 101 93 85 84 87 87 79 75 78 76 80 84 77 74 73 78 82 80 79 74 68 53 43 16 327 145 154 162 184 283 331 294 246 246 255 263 248 254 257 296 313 334 318 267 213 218 221
100 317 342 20 43 348 342 351 13 28 51 47 19 38 52 72 71 70 99 90 78 72 108 118 125 132 138 138 135 130 127 126 126 134 128 122 125 124 116 111 110 104 94 87 79 74 79 74 77 74 74 75 70 67 67 66 74 76 73 63 41 28 26 38 55 58 66 84 128 219 216 219 228 46 11 329 318 322 306 280 273 302 311 293 241 221
55 204 44 37 53 328 330 352 328 9 48 55 22 12 13 49 85 87 113 204 118 131 121 114 118 151 163 152 128 132 137 143 145 140 130 139 139 129 118 113 111 110 108 102 91 82 77 74 77 75 73 73 72 65 60 61 62 63 60 62 60 33 29 37 48 50 49 30 47 37 60 86 119 111 82 53 351 299 347 322 325 240 255 294 292 260
356 101 38 34 64 281 281 342 327 7 33 11 346 316 309 52 129 100 61 48 145 137 132 155 181 159 156 150 143 148 149 148 141 146 139 132 133 128 121 118 114 111 109 105 98 91 78 75 75 77 79 78 72 71 63 63 64 60 57 63 68 66 46 52 43 44 41 42 32 25 37 49 60 63 62 66 49 52 88 55 39 358 291 259 274 295
28 75 107 255 115 256 310 326 354 53 42 262 235 248 211 174 139 123 158 147 156 149 178 161 144 142 148 153 151 153 150 151 150 144 144 140 140 131 122 118 114 110 105 96 97 94 87 73 69 69 73 77 74 70 73 65 70 72 73 72 59 60 58 59 50 51 50 50 29 34 40 40 45 54 49 46 65 67 52 36 29 349 275 271 291 302
56 53 114 157 72 314 321 357 55 89 226 247 300 287 249 245 107 92 73 83 43 91 98 100 122 141 150 142 139 134 134 133 126 132 137 139 136 134 132 126 122 119 111 108 97 84 83 89 88 84 72 66 65 63 70 66 64 73 65 64 67 56 55 50 50 45 41 39 28 24 23 32 35 37 33 33 41 55 63 62 92 314 303 295 294 309
40 77 209 50 358 2 34 28 106 239 240 290 298 314 353 71 98 95 67 25 353 149 126 123 132 134 133 129 125 128 124 117 106 106 130 136 141 137 135 132 129 123 117 111 103 101 96 90 94 90 82 67 65 56 56 59 65 76 68 63 64 61 58 56 51 46 40 37 28 19 18 22 27 31 33 25 23 27 40 307 342 301 291 306 320 320
127 105 84 86 26 140 292 338 226 288 320 344 2 7 24 340 127 137 141 303 321 340 135 122 118 117 120 123 122 123 120 113 108 80 93 132 126 130 132 129 126 121 119 109 103 97 91 93 91 92 81 64 54 50 36 20 45 60 52 46 41 46 43 48 52 46 42 43 35 25 14 17 22 22 25 14 18 17 339 309 264 234 263 294 303 294
79 103 261 96 326 108 171 344 355 20 185 274 241 267 196 264 236 273 83 24 328 21 133 132 133 130 127 130 129 130 123 114 127 151 154 134 137 126 102 102 99 98 101 107 103 95 84 81 80 71 79 74 56 37 28 38 52 53 48 42 37 40 34 29 24 20 30 32 26 25 19 18 21 17 11 10 9 352 332 315 292 278 245 266 276 267
12 71 105 100 132 44 51 115 227 147 244 218 277 297 308 316 322 23 70 76 281 154 151 141 138 147 146 143 144 141 138 147 163 166 158 146 141 133 120 111 110 108 105 103 105 101 92 81 80 78 69 64 55 29 39 53 60 57 49 40 37 42 38 27 16 7 358 356 355 12 18 21 24 19 12 8 356 346 337 333 323 319 278 266 269 286
29 353 25 34 36 84 128 98 211 203 236 321 295 305 309 321 356 74 118 246 247 242 171 169 144 146 141 143 149 153 152 156 168 172 155 145 139 131 126 127 119 111 104 99 87 93 90 82 74 62 59 59 49 41 47 50 55 54 48 34 38 38 27 15 1 347 346 353 352 359 6 14 26 24 18 1 351 349 342 331 333 324 277 266 296 343
3 349 51 146 161 49 106 249 334 306 284 269 277 291 321 303 71 105 191 221 219 181 131 143 141 131 127 105 78 90 351 10 125 135 136 130 114 102 94 101 107 111 111 105 104 97 84 77 80 78 71 62 54 55 51 55 59 50 43 39 39 27 6 350 350 0 7 13 16 6 357 352 12 25 13 359 352 342 353 357 348 339 350 9 13 28
353 94 323 70 63 246 175 114 213 241 239 269 291 289 284 358 96 214 231 189 146 125 124 128 118 102 90 64 66 104 92 70 69 106 123 125 123 122 115 111 104 94 90 100 104 97 92 87 82 75 61 48 56 56 57 65 67 56 48 46 35 355 328 348 2 5 11 19 14 9 1 353 339 36 21 355 6 6 7 357 2 11 13 24 29 27
208 102 232 114 237 51 45 62 18 109 281 26 317 345 21 82 232 210 125 9 174 138 136 141 135 141 128 124 130 125 119 124 129 110 92 116 124 123 121 115 111 111 110 102 90 92 99 93 87 83 82 62 56 53 49 58 54 47 42 38 359 314 332 355 9 10 15 21 19 7 0 351 347 348 23 2 12 19 19 5 16 17 19 21 21 21
204 75 273 272 182 144 78 113 194 215 258 289 15 203 273 204 214 195 133 99 47 126 151 146 159 157 146 136 139 136 136 134 138 147 145 143 131 115 109 106 106 104 98 95 104 105 95 92 85 77 62 57 50 38 35 47 39 30 28 3 325 329 353 12 5 12 18 18 11 6 359 350 344 341 5 5 27 31 35 20 18 29 25 21 26 21
248 178 181 130 231 104 206 212 250 258 246 285 171 183 163 350 54 125 80 89 118 85 71 120 132 138 152 140 142 139 143 152 148 150 139 145 136 127 124 125 122 119 115 114 113 110 105 111 110 99 74 57 57 55 49 46 52 33 14 335 342 343 342 350 8 7 12 5 1 1 353 344 347 344 352 338 44 47 44 31 27 30 14 24 20 18
274 210 185 81 262 250 228 201 255 329 359 350 8 31 57 49 21 70 100 95 56 87 103 119 112 109 102 134 135 145 146 151 143 144 135 136 131 127 122 115 112 115 116 114 111 111 116 112 106 102 93 58 54 62 71 69 66 49 329 314 350 352 346 337 354 1 356 353 351 348 347 354 344 346 352 334 12 69 58 70 47 44 22 27 24 23
287 334 67 78 301 72 202 328 32 348 336 358 344 343 24 63 81 104 93 103 118 113 106 107 116 105 95 61 44 73 110 138 136 132 130 129 131 134 132 127 131 131 128 123 132 122 110 108 108 102 93 86 56 74 66 63 56 42 352 358 344 349 355 349 333 331 342 340 338 338 346 351 336 349 346 343 335 350 78 71 68 35 24 23 25 17
354 87 59 49 54 109 230 297 296 185 77 27 29 13 2 350 3 58 112 118 116 117 119 127 113 112 117 121 126 116 95 9 73 123 128 132 134 137 135 133 132 121 127 132 132 122 117 112 107 96 93 78 43 57 59 45 33 17 12 2 0 350 6 16 351 336 323 330 334 335 333 339 342 349 339 331 324 321 341 2 59 47 33 15 20 31
244 343 102 353 86 302 330 347 319 20 31 20 12 15 355 352 337 358 95 110 118 113 110 108 133 145 146 150 151 154 161 169 168 157 137 133 134 138 142 140 138 136 142 133 136 125 126 114 102 105 93 69 22 39 47 46 33 22 19 12 7 8 28 14 360 5 358 344 343 334 331 332 326 326 330 324 323 293 252 283 23 35 359 333 114 89
27 5 267 45 21 327 185 253 351 127 295 347 2 346 352 353 40 1 11 103 116 122 124 115 88 97 135 142 145 146 147 155 157 146 144 151 152 149 142 140 141 142 140 139 121 108 105 111 118 109 98 74 49 53 60 55 42 26 21 18 16 20 30 11 9 18 6 354 347 332 326 325 324 324 326 330 323 327 329 28 80 111 42 326 62 113
88 241 104 37 155 256 245 258 207 146 113 110 343 340 5 2 37 48 15 351 344 3 134 133 120 110 136 158 159 149 152 156 168 156 146 154 161 160 155 148 147 149 153 143 108 107 119 130 128 121 108 94 75 72 69 61 41 35 25 23 20 30 30 21 18 12 2 356 343 333 327 319 316 315 318 315 333 338 347 340 335 347 47 166 284 286